Content
SEND FEEDBACK

Daily
Averages
Monthly
Summary
Canada

QUEBEC CITY, QUEBEC


Home > North America > Canada > Quebec
Elevation: 239 feet     Latitude: 46 48N     Longitude: 071 23W

WEATHER
 
SELECT A DAY
Number of Records: 198,063;   Date Range: 6/30/96 - 12/18/14
 
SHARE

PRINT THIS DATA

[ ← Previous Day ]
WEATHER ALMANAC - FEBRUARY 16, 2014
[ Next Day → ]
[ °C ]   °F
Weather ElementAverageHighLow
Temperature15.7 °F23 °F (1:00 pm)8.6 °F (8:00 am)
Dewpoint8 °F16 °F (1:00 am)-2.2 °F (11:00 pm)
Humidity71 %93 % (1:38 am)42 % (10:00 pm)
Barometer29.71 in29.92 in (11:00 pm)29.63 in (5:42 am)
Wind Speed10.1 mph18.4 mph (5:00 pm)
Wind Gust28.8 mph (1:00 pm)
Weather ElementAverage
Visibility13.6 mi
Wind DirectionWSW (237.4 °)

Weather ElementTotal
Precipitation---
Heating Degree Days49.2 (Base 65)
Averaged from 35 records on February 16, 2014
WEATHER CONDITIONS BREAKOUT
WIND DIRECTION BREAKOUT
WEATHER BY HOUR - FEBRUARY 16, 2014
[ °C ]   °F
Local TimeTemperatureDewpointHumidityBarometerVisibilityWind DirectionWind SpeedGust SpeedPrecipitationEventsConditions
1:00 AM18.0 °F16.0 °F88 %29.72 inCalm
1:00 AM17.6 °F14.0 °F86 %29.71 in2.5 miVariable2.3 mphSnowLight Snow
1:38 AM17.6 °F15.8 °F93 %29.71 in4.0 miSouth (190°)4.6 mphSnowLight Snow
2:00 AM17.6 °F15.8 °F93 %29.70 in0.5 miSSW (200°)4.6 mphSnowSnow
2:40 AM17.6 °F15.8 °F93 %29.68 in1.5 miSSW (200°)5.8 mphSnowLight Snow
3:00 AM17.6 °F15.8 °F93 %29.67 in1.5 miSSW (200°)4.6 mphSnowLight Snow
3:53 AM15.8 °F14.0 °F93 %29.65 in6.0 miSW (220°)4.6 mphSnowLight Snow
4:00 AM15.8 °F14.0 °F93 %29.65 in6.0 miSW (230°)5.8 mphSnowLight Snow
4:00 AM17.0 °F15.0 °F89 %29.65 inSW (230°)3.5 mph
5:00 AM14.0 °F10.4 °F86 %29.64 in15.0 miSSW (210°)5.8 mphOvercast
5:42 AM14.0 °F10.4 °F86 %29.63 in6.0 miSW (220°)8.1 mphSnowLight Snow
6:00 AM12.2 °F8.6 °F85 %29.63 in6.0 miSW (220°)8.1 mphSnowLight Snow
7:00 AM11.0 °F8.0 °F80 %29.64 inSW (220°)4.6 mph
7:00 AM10.4 °F5.0 °F79 %29.63 in4.0 miSSW (210°)6.9 mphSnowLight Snow
8:00 AM8.6 °F3.2 °F79 %29.64 in5.0 miSSW (210°)8.1 mphSnowLight Snow
9:00 AM10.4 °F3.2 °F73 %29.64 in4.0 miSW (220°)9.2 mphSnowLight Snow
10:00 AM12.2 °F6.8 °F79 %29.64 in5.0 miSW (220°)10.4 mphSnowLight Snow
10:00 AM13.0 °F7.0 °F69 %29.65 inSSW (210°)6.9 mph
11:00 AM14.0 °F8.6 °F79 %29.65 in30.0 miSSW (210°)17.3 mphMostly Cloudy
12:00 PM17.6 °F10.4 °F73 %29.63 in30.0 miSW (220°)13.8 mph20.7 mphSnowLow Drifting Snow
1:00 PM22.0 °F9.0 °F43 %29.64 inWest (280°)17.3 mph
1:00 PM23.0 °F6.8 °F50 %29.64 in30.0 miWest (280°)16.1 mph28.8 mphSnowLow Drifting Snow
2:00 PM21.2 °F6.8 °F54 %29.67 in30.0 miWNW (290°)17.3 mph23.0 mphOvercast
3:00 PM19.4 °F5.0 °F54 %29.70 in30.0 miWNW (300°)13.8 mph21.9 mphMostly Cloudy
4:00 PM19.0 °F7.0 °F45 %29.73 inWNW (290°)13.8 mph
4:00 PM19.4 °F5.0 °F54 %29.72 in30.0 miWest (280°)16.1 mph24.2 mphMostly Cloudy
5:00 PM17.6 °F5.0 °F58 %29.75 in30.0 miWest (270°)18.4 mphMostly Cloudy
6:00 PM15.8 °F5.0 °F62 %29.78 in15.0 miWSW (250°)17.3 mphMostly Cloudy
7:00 PM16.0 °F6.0 °F51 %29.81 inWest (260°)12.7 mph
7:00 PM15.8 °F5.0 °F62 %29.80 in15.0 miWest (260°)17.3 mphMostly Cloudy
8:00 PM15.8 °F3.2 °F58 %29.83 in15.0 miWNW (290°)12.7 mphOvercast
9:00 PM14.0 °F1.4 °F57 %29.86 in15.0 miWNW (290°)10.4 mph17.3 mphMostly Cloudy
10:00 PM14.0 °F1.0 °F42 %29.89 inWNW (300°)11.5 mph
10:00 PM14.0 °F-0.4 °F53 %29.88 in15.0 miWNW (300°)12.7 mph19.6 mphMostly Cloudy
11:00 PM12.2 °F-2.2 °F53 %29.92 in15.0 miWNW (290°)11.5 mphMostly Cloudy
Hourly data recorded from CYQB, located miles away from Quebec City, Quebec







STORIES FROM OUR PARTNERS